Tiempo cada hora Dakoro

Hoy, 24 Noviembre, Martes

Tiempo Temperatura Precipitaciones Viento Presión Humedad
00:00 +27°C° 0 mm 2 mps 724 mmHg 25%
01:00 +26°C° 0 mm 2 mps 724 mmHg 26%
02:00 +26°C° 0 mm 2 mps 724 mmHg 26%
03:00 +26°C° 0 mm 3 mps 724 mmHg 27%
04:00 +26°C° 0 mm 3 mps 723 mmHg 27%
05:00 +25°C° 0 mm 3 mps 724 mmHg 28%
06:00 +25°C° 0 mm 3 mps 724 mmHg 29%
07:00 +24°C° 0 mm 3 mps 724 mmHg 30%
08:00 +27°C° 0 mm 3 mps 725 mmHg 27%
09:00 +29°C° 0 mm 4 mps 725 mmHg 24%
10:00 +33°C° 0 mm 4 mps 726 mmHg 20%
11:00 +34°C° 0 mm 3 mps 725 mmHg 20%
12:00 +35°C° 0 mm 2 mps 724 mmHg 19%
13:00 +35°C° 0 mm 1 mps 724 mmHg 18%
14:00 +35°C° 0 mm 1 mps 723 mmHg 18%
15:00 +36°C° 0 mm 1 mps 723 mmHg 18%
16:00 +34°C° 0 mm 0 mps 722 mmHg 18%
17:00 +34°C° 0 mm 1 mps 723 mmHg 19%
18:00 +34°C° 0 mm 2 mps 723 mmHg 21%
19:00 +31°C° 0 mm 3 mps 723 mmHg 23%
20:00 +31°C° 0 mm 3 mps 723 mmHg 23%
21:00 +30°C° 0 mm 2 mps 724 mmHg 24%
22:00 +29°C° 0 mm 2 mps 724 mmHg 24%
23:00 +29°C° 0 mm 2 mps 724 mmHg 25%

Mañana, 25 Noviembre, Miércoles

Tiempo Temperatura Precipitaciones Viento Presión Humedad
00:00 +28°C° 0 mm 2 mps 724 mmHg 25%
01:00 +27°C° 0 mm 2 mps 723 mmHg 26%
02:00 +27°C° 0 mm 2 mps 723 mmHg 26%
03:00 +26°C° 0 mm 3 mps 723 mmHg 26%
04:00 +26°C° 0 mm 3 mps 723 mmHg 26%
05:00 +25°C° 0 mm 3 mps 723 mmHg 26%
06:00 +25°C° 0 mm 4 mps 723 mmHg 27%
07:00 +23°C° 0 mm 4 mps 724 mmHg 27%
08:00 +27°C° 0 mm 5 mps 724 mmHg 23%
09:00 +29°C° 0 mm 5 mps 725 mmHg 20%
10:00 +32°C° 0 mm 6 mps 725 mmHg 16%
11:00 +33°C° 0 mm 6 mps 725 mmHg 16%
12:00 +35°C° 0 mm 6 mps 724 mmHg 15%
13:00 +36°C° 0 mm 5 mps 723 mmHg 14%
14:00 +37°C° 0 mm 5 mps 723 mmHg 14%
15:00 +37°C° 0 mm 4 mps 722 mmHg 15%
16:00 +37°C° 0 mm 3 mps 722 mmHg 15%
17:00 +35°C° 0 mm 3 mps 722 mmHg 17%
18:00 +33°C° 0 mm 3 mps 722 mmHg 18%
19:00 +30°C° 0 mm 3 mps 723 mmHg 20%
20:00 +29°C° 0 mm 4 mps 723 mmHg 20%
21:00 +29°C° 0 mm 4 mps 723 mmHg 21%
22:00 +28°C° 0 mm 5 mps 723 mmHg 21%
23:00 +27°C° 0 mm 5 mps 723 mmHg 21%

Pasado mañana, 26 Noviembre, Jueves

Tiempo Temperatura Precipitaciones Viento Presión Humedad
00:00 +26°C° 0 mm 5 mps 723 mmHg 22%
01:00 +25°C° 0 mm 5 mps 723 mmHg 22%
02:00 +25°C° 0 mm 5 mps 723 mmHg 22%
03:00 +23°C° 0 mm 4 mps 722 mmHg 23%
04:00 +23°C° 0 mm 4 mps 722 mmHg 23%
05:00 +22°C° 0 mm 4 mps 723 mmHg 24%
06:00 +22°C° 0 mm 4 mps 723 mmHg 24%
07:00 +22°C° 0 mm 4 mps 723 mmHg 25%
08:00 +25°C° 0 mm 5 mps 724 mmHg 22%
09:00 +27°C° 0 mm 5 mps 724 mmHg 19%
10:00 +30°C° 0 mm 6 mps 725 mmHg 16%
11:00 +33°C° 0 mm 6 mps 724 mmHg 15%
12:00 +34°C° 0 mm 6 mps 724 mmHg 14%
13:00 +36°C° 0 mm 5 mps 723 mmHg 14%
14:00 +36°C° 0 mm 5 mps 722 mmHg 14%
15:00 +37°C° 0 mm 4 mps 722 mmHg 14%
16:00 +37°C° 0 mm 3 mps 721 mmHg 14%
17:00 +35°C° 0 mm 3 mps 721 mmHg 16%
18:00 +33°C° 0 mm 3 mps 721 mmHg 18%
19:00 +30°C° 0 mm 2 mps 722 mmHg 20%
20:00 +29°C° 0 mm 2 mps 722 mmHg 20%
21:00 +29°C° 0 mm 3 mps 722 mmHg 21%
22:00 +28°C° 0 mm 3 mps 723 mmHg 21%
23:00 +28°C° 0 mm 3 mps 723 mmHg 21%

27 Noviembre, Viernes

Tiempo Temperatura Precipitaciones Viento Presión Humedad
00:00 +27°C° 0 mm 3 mps 722 mmHg 22%
01:00 +26°C° 0 mm 4 mps 722 mmHg 22%
02:00 +26°C° 0 mm 4 mps 722 mmHg 22%
03:00 +25°C° 0 mm 4 mps 722 mmHg 22%
04:00 +23°C° 0 mm 4 mps 722 mmHg 21%
05:00 +23°C° 0 mm 4 mps 722 mmHg 22%
06:00 +23°C° 0 mm 4 mps 722 mmHg 23%
07:00 +22°C° 0 mm 3 mps 723 mmHg 24%
08:00 +26°C° 0 mm 4 mps 723 mmHg 21%
09:00 +28°C° 0 mm 5 mps 724 mmHg 19%
10:00 +30°C° 0 mm 6 mps 724 mmHg 16%
11:00 +33°C° 0 mm 6 mps 724 mmHg 15%
12:00 +35°C° 0 mm 6 mps 723 mmHg 14%
13:00 +37°C° 0 mm 5 mps 723 mmHg 13%
14:00 +37°C° 0 mm 5 mps 722 mmHg 13%
15:00 +37°C° 0 mm 4 mps 722 mmHg 13%
16:00 +37°C° 0 mm 3 mps 722 mmHg 14%
17:00 +35°C° 0 mm 3 mps 722 mmHg 16%
18:00 +33°C° 0 mm 3 mps 722 mmHg 18%
19:00 +30°C° 0 mm 3 mps 722 mmHg 20%
20:00 +30°C° 0 mm 3 mps 722 mmHg 20%
21:00 +29°C° 0 mm 3 mps 723 mmHg 20%
22:00 +29°C° 0 mm 3 mps 723 mmHg 21%
23:00 +29°C° 0 mm 3 mps 723 mmHg 21%

28 Noviembre, Sábado

Tiempo Temperatura Precipitaciones Viento Presión Humedad
00:00 +28°C° 0 mm 3 mps 723 mmHg 22%
01:00 +28°C° 0 mm 3 mps 723 mmHg 22%
02:00 +27°C° 0 mm 3 mps 723 mmHg 23%
03:00 +27°C° 0 mm 4 mps 723 mmHg 23%
04:00 +26°C° 0 mm 4 mps 723 mmHg 24%
05:00 +25°C° 0 mm 4 mps 723 mmHg 24%
06:00 +25°C° 0 mm 4 mps 723 mmHg 25%
07:00 +23°C° 0 mm 4 mps 723 mmHg 26%
08:00 +26°C° 0 mm 4 mps 724 mmHg 22%
09:00 +29°C° 0 mm 5 mps 725 mmHg 19%
10:00 +32°C° 0 mm 6 mps 725 mmHg 15%
11:00 +34°C° 0 mm 5 mps 725 mmHg 14%
12:00 +35°C° 0 mm 5 mps 724 mmHg 13%
13:00 +37°C° 0 mm 5 mps 724 mmHg 12%
14:00 +37°C° 0 mm 4 mps 723 mmHg 13%
15:00 +37°C° 0 mm 3 mps 723 mmHg 13%
16:00 +37°C° 0 mm 3 mps 722 mmHg 13%
17:00 +35°C° 0 mm 2 mps 723 mmHg 15%
18:00 +32°C° 0 mm 2 mps 723 mmHg 17%
19:00 +30°C° 0 mm 2 mps 723 mmHg 19%
20:00 +29°C° 0 mm 1 mps 723 mmHg 21%
21:00 +28°C° 0 mm 1 mps 724 mmHg 22%
22:00 +27°C° 0 mm 1 mps 724 mmHg 23%
23:00 +27°C° 0 mm 1 mps 724 mmHg 23%

29 Noviembre, Domingo

Tiempo Temperatura Precipitaciones Viento Presión Humedad
00:00 +27°C° 0 mm 2 mps 724 mmHg 23%
01:00 +27°C° 0 mm 2 mps 723 mmHg 23%
02:00 +26°C° 0 mm 3 mps 723 mmHg 23%
03:00 +26°C° 0 mm 3 mps 723 mmHg 23%
04:00 +25°C° 0 mm 3 mps 723 mmHg 22%
05:00 +25°C° 0 mm 4 mps 723 mmHg 22%
06:00 +23°C° 0 mm 4 mps 723 mmHg 22%
07:00 +23°C° 0 mm 4 mps 724 mmHg 22%
08:00 +27°C° 0 mm 4 mps 724 mmHg 19%
09:00 +29°C° 0 mm 5 mps 725 mmHg 16%
10:00 +33°C° 0 mm 5 mps 725 mmHg 13%
11:00 +34°C° 0 mm 5 mps 725 mmHg 12%
12:00 +36°C° 0 mm 5 mps 724 mmHg 12%
13:00 +37°C° 0 mm 5 mps 724 mmHg 11%
14:00 +37°C° 0 mm 4 mps 723 mmHg 11%
15:00 +38°C° 0 mm 4 mps 723 mmHg 11%
16:00 +38°C° 0 mm 4 mps 722 mmHg 11%
17:00 +36°C° 0 mm 4 mps 722 mmHg 13%
18:00 +33°C° 0 mm 3 mps 722 mmHg 14%
19:00 +30°C° 0 mm 2 mps 722 mmHg 16%
20:00 +29°C° 0 mm 3 mps 723 mmHg 16%
21:00 +29°C° 0 mm 3 mps 723 mmHg 17%
22:00 +28°C° 0 mm 3 mps 723 mmHg 17%
23:00 +27°C° 0 mm 4 mps 723 mmHg 18%
Mostrar más

Necesitamos Su Consentimiento

Meteoprog y nuestros Proveedores de Servicios pueden almacenar y acceder a sus datos personales como cookies, identificadores de dispositivo u otras tecnologías similares de su dispositivo y procesar dichos datos para personalizar contenido y anuncios, además de ofrecer funciones de redes sociales y analizar el tráfico.

  • Almacenar y/o acceder a información en su dispositivo

    Se puede almacenar o acceder a cookies, identificadores de dispositivo u otra información de su dispositivo para los fines anteriormente indicados.

  • Anuncios y contenido personalizados, medición de anuncios y contenido, percepciones del público, y desarrollo de productos

    Los anuncios y el contenido pueden personalizarse en base a su perfil. Se pueden añadir más datos para personalizar mejor los anuncios y contenidos. Se puede medir el rendimiento de los anuncios y contenidos. Se puede obtener la percepción sobre el público que ha visto los anuncios y contenidos. Dichos datos pueden usarse para desarrollar o mejorar la experiencia del usuario, sistemas y software.

Al hacer clic en ‘Estoy De Acuerdo’ usted permitirá el uso de las cookies, identificadores de dispositivo, balizas web u otras tecnologías similares indicadas. Su configuración puede cambiarse desde el navegador de su dispositivo.

Para ciertos fines, los intereses legítimos pueden ser considerados por encima del consentimiento. Puede leer más sobre ello en nuestra Política de Privacidad y Cookies.